VOE4HD LFMT-LFRS

Flight info

Callsign VOE4HD
Flight time 1h 2m
Altitude 32000
Route BRUSC DCT GAI DCT SECHE DCT UVELI DCT CNA DCT MANAK
Aircraft A320/M-SDFGHIJ1RWY/LB1

Departure

Time 2026-04-25 05:11
Airport Montpellier-Méditerranée Airport (LFMT)

Arrival

Time 2026-04-25 06:14
Airport Nantes Atlantique Airport (LFRS)
Time Latitude Longitude Altitude Speed Heading
2026-04-25 04:57 43.57920 3.96039 15 ft 0 kts 294°
2026-04-25 05:04 43.57916 3.96050 17 ft 4 kts 294°
2026-04-25 05:04 43.57905 3.96084 15 ft 4 kts 295°
2026-04-25 05:04 43.57893 3.96117 18 ft 4 kts 305°
2026-04-25 05:05 43.57882 3.96135 17 ft 4 kts 327°
2026-04-25 05:05 43.57876 3.96141 18 ft 0 kts 336°
2026-04-25 05:07 43.57880 3.96138 17 ft 4 kts 337°
2026-04-25 05:07 43.57929 3.96155 15 ft 9 kts 33°
2026-04-25 05:07 43.57976 3.96201 15 ft 8 kts 35°
2026-04-25 05:08 43.58026 3.96250 15 ft 6 kts 35°
2026-04-25 05:08 43.58056 3.96254 15 ft 8 kts 341°
2026-04-25 05:08 43.58106 3.96174 17 ft 14 kts 304°
2026-04-25 05:08 43.58175 3.96036 13 ft 20 kts 304°
2026-04-25 05:09 43.58257 3.95869 13 ft 22 kts 303°
2026-04-25 05:09 43.58346 3.95693 12 ft 19 kts 305°
2026-04-25 05:09 43.58404 3.95577 13 ft 12 kts 304°
2026-04-25 05:09 43.58455 3.95500 13 ft 10 kts 332°
2026-04-25 05:10 43.58525 3.95505 13 ft 11 kts 24°
2026-04-25 05:10 43.58586 3.95576 13 ft 13 kts 54°
2026-04-25 05:10 43.58553 3.95693 11 ft 20 kts 125°
2026-04-25 05:10 43.58342 3.96108 15 ft 88 kts 125°
2026-04-25 05:11 43.57871 3.97042 15 ft 147 kts 124°
2026-04-25 05:11 43.57258 3.98269 412 ft 159 kts 123°
2026-04-25 05:11 43.56612 3.99541 1046 ft 164 kts 124°
2026-04-25 05:12 43.55230 4.02277 1953 ft 193 kts 126°
2026-04-25 05:12 43.54355 4.03818 2242 ft 216 kts 140°
2026-04-25 05:12 43.52908 4.04589 2518 ft 238 kts 182°
2026-04-25 05:12 43.51313 4.03845 2926 ft 255 kts 221°
2026-04-25 05:13 43.50335 4.01810 3611 ft 260 kts 257°
2026-04-25 05:13 43.50175 3.99359 4404 ft 264 kts 273°
2026-04-25 05:13 43.50297 3.96812 5249 ft 269 kts 277°
2026-04-25 05:13 43.50472 3.94229 6096 ft 273 kts 277°
2026-04-25 05:14 43.50601 3.91600 6940 ft 277 kts 275°
2026-04-25 05:14 43.50693 3.88943 7764 ft 279 kts 279°
2026-04-25 05:14 43.51137 3.86346 8594 ft 279 kts 292°
2026-04-25 05:15 43.52609 3.81346 10255 ft 284 kts 293°
2026-04-25 05:15 43.53354 3.78729 10613 ft 304 kts 292°
2026-04-25 05:15 43.54139 3.75952 10895 ft 324 kts 292°
2026-04-25 05:15 43.54962 3.73030 11507 ft 331 kts 292°
2026-04-25 05:16 43.55800 3.70056 12221 ft 335 kts 292°
2026-04-25 05:16 43.56648 3.67045 12948 ft 338 kts 292°
2026-04-25 05:16 43.57504 3.64017 13682 ft 341 kts 292°
2026-04-25 05:16 43.58371 3.60963 14384 ft 343 kts 292°
2026-04-25 05:17 43.59241 3.57886 15032 ft 346 kts 292°
2026-04-25 05:17 43.60116 3.54779 15653 ft 349 kts 292°
2026-04-25 05:17 43.61000 3.51641 16265 ft 353 kts 292°
2026-04-25 05:17 43.61892 3.48471 16877 ft 356 kts 292°
2026-04-25 05:18 43.62793 3.45269 17480 ft 360 kts 292°
2026-04-25 05:18 43.63691 3.42079 18069 ft 363 kts 292°
2026-04-25 05:18 43.64611 3.38813 18629 ft 367 kts 292°
2026-04-25 05:18 43.65536 3.35517 19149 ft 370 kts 292°
2026-04-25 05:19 43.66466 3.32188 19664 ft 373 kts 292°
2026-04-25 05:19 43.67403 3.28830 20186 ft 376 kts 292°
2026-04-25 05:19 43.68347 3.25443 20711 ft 379 kts 292°
2026-04-25 05:19 43.69298 3.22025 21227 ft 383 kts 292°
2026-04-25 05:20 43.70254 3.18581 21738 ft 386 kts 291°
2026-04-25 05:20 43.71204 3.15148 22267 ft 389 kts 291°
2026-04-25 05:20 43.72175 3.11642 22773 ft 392 kts 291°
2026-04-25 05:20 43.73151 3.08116 23273 ft 395 kts 291°
2026-04-25 05:21 43.74136 3.04553 23760 ft 398 kts 291°
2026-04-25 05:21 43.75008 3.00923 24236 ft 398 kts 284°
2026-04-25 05:21 43.75677 2.97193 24619 ft 401 kts 284°
2026-04-25 05:21 43.76344 2.93431 25013 ft 404 kts 283°
2026-04-25 05:22 43.77010 2.89654 25442 ft 404 kts 283°
2026-04-25 05:22 43.77677 2.85864 25818 ft 407 kts 283°
2026-04-25 05:22 43.78339 2.82102 26224 ft 408 kts 283°
2026-04-25 05:22 43.79011 2.78284 26622 ft 409 kts 283°
2026-04-25 05:23 43.79686 2.74439 26933 ft 413 kts 283°
2026-04-25 05:23 43.80365 2.70566 27289 ft 415 kts 283°
2026-04-25 05:23 43.81049 2.66664 27611 ft 418 kts 283°
2026-04-25 05:23 43.81733 2.62751 27963 ft 420 kts 283°
2026-04-25 05:24 43.82421 2.58805 28308 ft 422 kts 283°
2026-04-25 05:24 43.83100 2.54896 28643 ft 424 kts 283°
2026-04-25 05:24 43.83787 2.50916 28983 ft 426 kts 283°
2026-04-25 05:24 43.84475 2.46917 29304 ft 428 kts 283°
2026-04-25 05:25 43.85167 2.42900 29610 ft 430 kts 283°
2026-04-25 05:25 43.85861 2.38870 29930 ft 431 kts 283°
2026-04-25 05:25 43.86558 2.34819 30229 ft 433 kts 283°
2026-04-25 05:25 43.87256 2.30752 30482 ft 435 kts 283°
2026-04-25 05:26 43.87953 2.26673 30744 ft 436 kts 283°
2026-04-25 05:26 43.88649 2.22586 31024 ft 436 kts 283°
2026-04-25 05:26 43.89346 2.18494 31279 ft 437 kts 283°
2026-04-25 05:26 43.90032 2.14447 31539 ft 437 kts 283°
2026-04-25 05:27 43.90723 2.10350 31847 ft 436 kts 283°
2026-04-25 05:27 43.91408 2.06260 32157 ft 435 kts 283°
2026-04-25 05:27 43.92092 2.02178 32465 ft 434 kts 283°
2026-04-25 05:27 43.92777 1.98102 32782 ft 433 kts 283°
2026-04-25 05:28 43.93461 1.94039 33090 ft 433 kts 283°
2026-04-25 05:28 43.94143 1.89979 33404 ft 432 kts 283°
2026-04-25 05:28 43.94822 1.85931 33748 ft 430 kts 283°
2026-04-25 05:28 43.95695 1.81972 34062 ft 430 kts 291°
2026-04-25 05:29 43.96954 1.78285 34146 ft 425 kts 297°
2026-04-25 05:29 43.99689 1.71104 34155 ft 419 kts 297°
2026-04-25 05:30 44.02399 1.63954 34153 ft 418 kts 296°
2026-04-25 05:30 44.05091 1.56795 34150 ft 417 kts 296°
2026-04-25 05:31 44.07771 1.49633 34149 ft 417 kts 296°
2026-04-25 05:31 44.10441 1.42480 34147 ft 417 kts 296°
2026-04-25 05:32 44.13113 1.35326 34142 ft 416 kts 296°
2026-04-25 05:32 44.15763 1.28218 34141 ft 416 kts 296°
2026-04-25 05:33 44.18424 1.21054 34133 ft 416 kts 296°
2026-04-25 05:33 44.21072 1.13883 34133 ft 416 kts 296°
2026-04-25 05:34 44.23719 1.06701 34136 ft 416 kts 296°
2026-04-25 05:34 44.26368 0.99521 34132 ft 416 kts 296°
2026-04-25 05:35 44.28996 0.92382 34135 ft 416 kts 296°
2026-04-25 05:35 44.31625 0.85193 34124 ft 416 kts 296°
2026-04-25 05:36 44.34256 0.77984 34122 ft 416 kts 296°
2026-04-25 05:36 44.36883 0.70789 34132 ft 416 kts 296°
2026-04-25 05:37 44.39502 0.63584 34131 ft 415 kts 296°
2026-04-25 05:37 44.42190 0.56431 34141 ft 416 kts 302°
2026-04-25 05:38 44.46135 0.50518 34131 ft 420 kts 322°
2026-04-25 05:38 44.51295 0.46624 34120 ft 423 kts 333°
2026-04-25 05:39 44.56593 0.43125 34118 ft 424 kts 332°
2026-04-25 05:39 44.61915 0.39573 34123 ft 424 kts 332°
2026-04-25 05:40 44.67246 0.36002 34126 ft 424 kts 332°
2026-04-25 05:40 44.72577 0.32439 34128 ft 424 kts 332°
2026-04-25 05:41 44.77872 0.28887 34129 ft 424 kts 332°
2026-04-25 05:41 44.83201 0.25312 34129 ft 424 kts 332°
2026-04-25 05:42 44.88533 0.21742 34131 ft 424 kts 332°
2026-04-25 05:42 44.93858 0.18157 34132 ft 424 kts 332°
2026-04-25 05:43 44.99148 0.14586 34127 ft 424 kts 332°
2026-04-25 05:43 45.04467 0.10981 34123 ft 425 kts 332°
2026-04-25 05:44 45.09802 0.07368 34120 ft 425 kts 332°
2026-04-25 05:44 45.15138 0.03744 34121 ft 426 kts 332°
2026-04-25 05:45 45.20481 0.00115 34124 ft 426 kts 332°
2026-04-25 05:45 45.25788 -0.03513 34120 ft 426 kts 332°
2026-04-25 05:46 45.31131 -0.07177 34119 ft 427 kts 332°
2026-04-25 05:46 45.36479 -0.10835 34123 ft 427 kts 332°
2026-04-25 05:47 45.41831 -0.14498 34128 ft 427 kts 332°
2026-04-25 05:47 45.47140 -0.18154 34129 ft 427 kts 332°
2026-04-25 05:48 45.52492 -0.21839 33984 ft 426 kts 332°
2026-04-25 05:48 45.55147 -0.23673 33708 ft 422 kts 332°
2026-04-25 05:48 45.57769 -0.25488 33234 ft 417 kts 332°
2026-04-25 05:48 45.60367 -0.27291 32729 ft 413 kts 332°
2026-04-25 05:49 45.62945 -0.29077 32224 ft 410 kts 332°
2026-04-25 05:49 45.65447 -0.30884 31730 ft 406 kts 327°
2026-04-25 05:49 45.67753 -0.33166 31232 ft 401 kts 320°
2026-04-25 05:49 45.69934 -0.35634 30738 ft 398 kts 320°
2026-04-25 05:50 45.72103 -0.38082 30242 ft 396 kts 320°
2026-04-25 05:50 45.74258 -0.40513 29728 ft 393 kts 320°
2026-04-25 05:50 45.76393 -0.42917 29265 ft 388 kts 320°
2026-04-25 05:50 45.78506 -0.45294 28816 ft 384 kts 320°
2026-04-25 05:51 45.80569 -0.47620 28373 ft 381 kts 320°
2026-04-25 05:51 45.82633 -0.49953 27951 ft 377 kts 320°
2026-04-25 05:51 45.84680 -0.52274 27529 ft 373 kts 320°
2026-04-25 05:51 45.86708 -0.54575 27113 ft 370 kts 320°
2026-04-25 05:52 45.88718 -0.56852 26705 ft 366 kts 320°
2026-04-25 05:52 45.90709 -0.59111 26291 ft 363 kts 320°
2026-04-25 05:52 45.92680 -0.61355 25884 ft 360 kts 320°
2026-04-25 05:52 45.94636 -0.63582 25477 ft 357 kts 320°
2026-04-25 05:53 45.96575 -0.65793 25047 ft 355 kts 320°
2026-04-25 05:53 45.98505 -0.67994 24626 ft 353 kts 320°
2026-04-25 05:53 46.00426 -0.70186 24194 ft 352 kts 320°
2026-04-25 05:53 46.02314 -0.72344 23764 ft 351 kts 320°
2026-04-25 05:54 46.04224 -0.74525 23267 ft 350 kts 320°
2026-04-25 05:54 46.06122 -0.76697 22839 ft 347 kts 320°
2026-04-25 05:54 46.09878 -0.81007 21977 ft 343 kts 320°
2026-04-25 05:55 46.11739 -0.83148 21551 ft 341 kts 320°
2026-04-25 05:55 46.13590 -0.85278 21129 ft 340 kts 320°
2026-04-25 05:55 46.15437 -0.87399 20711 ft 339 kts 320°
2026-04-25 05:55 46.17274 -0.89511 20300 ft 337 kts 320°
2026-04-25 05:56 46.19106 -0.91622 19884 ft 337 kts 320°
2026-04-25 05:56 46.20910 -0.93700 19476 ft 336 kts 320°
2026-04-25 05:56 46.22734 -0.95804 19085 ft 335 kts 320°
2026-04-25 05:56 46.24556 -0.97907 18676 ft 335 kts 320°
2026-04-25 05:57 46.26377 -1.00009 18241 ft 335 kts 320°
2026-04-25 05:57 46.28193 -1.02106 17822 ft 333 kts 320°
2026-04-25 05:57 46.29998 -1.04194 17426 ft 331 kts 320°
2026-04-25 05:57 46.31792 -1.06275 17018 ft 330 kts 320°
2026-04-25 05:58 46.33577 -1.08347 16621 ft 328 kts 320°
2026-04-25 05:58 46.35355 -1.10408 16226 ft 327 kts 320°
2026-04-25 05:58 46.37108 -1.12442 15835 ft 326 kts 320°
2026-04-25 05:58 46.38874 -1.14495 15445 ft 326 kts 320°
2026-04-25 05:59 46.40640 -1.16549 15053 ft 325 kts 320°
2026-04-25 05:59 46.42400 -1.18598 14655 ft 324 kts 320°
2026-04-25 05:59 46.44156 -1.20647 14274 ft 324 kts 320°
2026-04-25 05:59 46.45913 -1.22697 13869 ft 324 kts 320°
2026-04-25 06:00 46.47668 -1.24746 13450 ft 323 kts 320°
2026-04-25 06:00 46.49413 -1.26786 13054 ft 321 kts 320°
2026-04-25 06:00 46.51149 -1.28817 12649 ft 319 kts 320°
2026-04-25 06:00 46.52850 -1.30811 12267 ft 318 kts 320°
2026-04-25 06:01 46.54564 -1.32823 11919 ft 315 kts 320°
2026-04-25 06:01 46.56237 -1.34788 11788 ft 304 kts 320°
2026-04-25 06:01 46.57872 -1.36707 11478 ft 301 kts 320°
2026-04-25 06:01 46.59554 -1.38498 11131 ft 299 kts 329°
2026-04-25 06:02 46.61464 -1.39679 10789 ft 299 kts 343°
2026-04-25 06:02 46.63470 -1.40441 10438 ft 297 kts 344°
2026-04-25 06:02 46.65464 -1.41198 10093 ft 295 kts 344°
2026-04-25 06:02 46.67444 -1.41957 9719 ft 293 kts 344°
2026-04-25 06:03 46.69380 -1.42700 9333 ft 291 kts 344°
2026-04-25 06:03 46.71330 -1.43450 8873 ft 288 kts 344°
2026-04-25 06:03 46.73263 -1.44203 8307 ft 286 kts 343°
2026-04-25 06:03 46.75176 -1.44960 7702 ft 284 kts 344°
2026-04-25 06:04 46.77075 -1.45716 7111 ft 282 kts 344°
2026-04-25 06:04 46.78958 -1.46469 6520 ft 279 kts 344°
2026-04-25 06:04 46.80819 -1.47213 5988 ft 276 kts 344°
2026-04-25 06:04 46.82672 -1.47950 5540 ft 276 kts 344°
2026-04-25 06:05 46.84516 -1.48682 5222 ft 271 kts 344°
2026-04-25 06:05 46.86266 -1.49378 5089 ft 258 kts 345°
2026-04-25 06:05 46.87957 -1.50050 4961 ft 246 kts 345°
2026-04-25 06:05 46.89587 -1.50702 4730 ft 239 kts 342°
2026-04-25 06:06 46.90971 -1.51934 4609 ft 236 kts 307°
2026-04-25 06:06 46.91548 -1.54137 4440 ft 236 kts 271°
2026-04-25 06:06 46.91369 -1.56493 4260 ft 230 kts 261°
2026-04-25 06:06 46.91178 -1.58796 4083 ft 227 kts 265°
2026-04-25 06:07 46.91104 -1.61102 3857 ft 227 kts 269°
2026-04-25 06:07 46.91140 -1.63402 3659 ft 226 kts 273°
2026-04-25 06:07 46.91282 -1.65691 3490 ft 226 kts 277°
2026-04-25 06:07 46.91522 -1.67952 3366 ft 226 kts 281°
2026-04-25 06:08 46.91880 -1.70153 3234 ft 225 kts 291°
2026-04-25 06:08 46.92620 -1.72098 3118 ft 215 kts 310°
2026-04-25 06:08 46.93696 -1.73537 3020 ft 207 kts 328°
2026-04-25 06:08 46.94990 -1.74403 2982 ft 204 kts 346°
2026-04-25 06:09 46.96385 -1.74659 3020 ft 202 kts
2026-04-25 06:09 46.97767 -1.74304 2990 ft 201 kts 20°
2026-04-25 06:09 46.99027 -1.73430 2979 ft 201 kts 28°
2026-04-25 06:09 47.00267 -1.72492 2975 ft 201 kts 28°
2026-04-25 06:10 47.01495 -1.71563 2833 ft 201 kts 28°
2026-04-25 06:10 47.02735 -1.70624 2590 ft 200 kts 28°
2026-04-25 06:10 47.03963 -1.69695 2340 ft 196 kts 28°
2026-04-25 06:10 47.05162 -1.68787 2082 ft 192 kts 29°
2026-04-25 06:11 47.06318 -1.67911 1835 ft 180 kts 29°
2026-04-25 06:11 47.07391 -1.67101 1590 ft 166 kts 28°
2026-04-25 06:11 47.08360 -1.66379 1413 ft 150 kts 28°
2026-04-25 06:11 47.09268 -1.65717 1175 ft 142 kts 29°
2026-04-25 06:12 47.10128 -1.65043 993 ft 141 kts 31°
2026-04-25 06:12 47.11001 -1.64358 826 ft 144 kts 29°
2026-04-25 06:12 47.11880 -1.63696 631 ft 143 kts 29°
2026-04-25 06:12 47.12758 -1.63023 426 ft 144 kts 28°
2026-04-25 06:13 47.13640 -1.62353 245 ft 142 kts 28°
2026-04-25 06:13 47.14505 -1.61691 98 ft 134 kts 28°
2026-04-25 06:13 47.15219 -1.61145 88 ft 86 kts 27°
2026-04-25 06:14 47.15769 -1.60729 84 ft 27 kts 28°
2026-04-25 06:14 47.15839 -1.60616 85 ft 14 kts 82°
2026-04-25 06:14 47.15812 -1.60526 91 ft 7 kts 130°
2026-04-25 06:14 47.15784 -1.60485 90 ft 5 kts 139°
2026-04-25 06:15 47.15764 -1.60462 89 ft 3 kts 144°
2026-04-25 06:15 47.15750 -1.60448 90 ft 2 kts 145°
2026-04-25 06:15 47.15741 -1.60436 90 ft 3 kts 133°
2026-04-25 06:15 47.15733 -1.60401 90 ft 4 kts 101°
2026-04-25 06:16 47.15732 -1.60370 90 ft 2 kts 89°
2026-04-25 06:16 47.15733 -1.60350 90 ft 1 kts 89°
2026-04-25 06:16 47.15733 -1.60338 90 ft 2 kts 89°
2026-04-25 06:16 47.15733 -1.60322 90 ft 1 kts 89°